Satellite-Ground Cal/Val Site Overpasses Predictions

Prediction of Satellite NPP Overpassing Cal/Val Site: Antarctic Dome C

Ground Cal/Val Site Location: Latitude: -75.10, Longitude: 123.35; Satellite-Ground Site NADIR distance within 100 km.

Table of predicted overpasses for the next 14.0 days since TLE Epoch: 3/15/2019
Interval Starting Time Ending Time Minimum Distance Time Minimum Distance (km)
1 03/16/2019 07:25:01 03/16/2019 07:25:29 03/16/2019 07:25:15 36.77
2 03/18/2019 15:07:27 03/18/2019 15:07:34 03/18/2019 15:07:30 95.92
3 03/19/2019 14:48:25 03/19/2019 14:48:54 03/19/2019 14:48:39 15.46
4 03/21/2019 07:31:13 03/21/2019 07:31:42 03/21/2019 07:31:28 2.10
5 03/24/2019 14:54:39 03/24/2019 14:55:07 03/24/2019 14:54:53 20.73
6 03/25/2019 14:35:55 03/25/2019 14:36:10 03/25/2019 14:36:03 86.30
7 03/26/2019 07:37:27 03/26/2019 07:37:55 03/26/2019 07:37:41 35.32
8 03/27/2019 07:18:42 03/27/2019 07:19:01 03/27/2019 07:18:51 74.81


NCC Satellite Cal/Val Overpasses Prediction Service
